QPF
0.03 0.02 0.01 0.03 0.03 0.01 0.02 0.03 0.03 0.03 0.03 0.04 0.06 0.06 0.05 0.06 0.06 0.05 0.05 0.05 0.05 0.03 0.05 0.10 0.10 0.07 0.08 0.07 0.06 0.04 0.04 0.04 0.04 0.02 0.02 0.01 0.01 0.02 0.02 0.02 0.02 0.03 0.04 0.03 0.03 0.02 0.02 0.02 0.03
0.02 0.01 0.02 0.03 0.01 0.01 0.01 0.01 0.03 0.03 0.02 0.03 0.03 0.03 0.04 0.03 0.03 0.04 0.04 0.04 0.03 0.01 0.02 0.04 0.08 0.07 0.06 0.07 0.06 0.04 0.02 0.02 0.02 0.02 0.02 0.01 0.01 0.01 0.02 0.01 0.01 0.02 0.03 0.03 0.03 0.03 0.02 0.02 0.03
0.02 0.02 0.03 0.01 0.01 0.01 0.01 0.02 0.03 0.02 0.02 0.04 0.05 0.03 0.03 0.05 0.05 0.05 0.03 0.01 0.02 0.02 0.02 0.03 0.06 0.05 0.06 0.06 0.07 0.05 0.04 0.03 0.02 0.02 0.03 0.02 0.02 0.01 0.02 0.01 0.01 0.01 0.01 0.02 0.02 0.02 0.02 0.02 0.02
0.02 0.03 0.02 0.01 0.01 0.01 0.02 0.04 0.04 0.02 0.02 0.02 0.02 0.03 0.03 0.05 0.04 0.02 0.02 0.01 0.01 0.01 0.03 0.03 0.06 0.06 0.06 0.06 0.05 0.05 0.05 0.03 0.03 0.03 0.03 0.02 0.01 0.01 0.01 0.01 0.01 0.01 0.01 0.01 0.01 0.01 0.01 0.01 0.01
0.04 0.03 0.01 0.01 0.01 0.02 0.03 0.04 0.04 0.06 0.04 0.03 0.02 0.02 0.03 0.05 0.04 0.01 0.01 0.01 0.00 0.01 0.01 0.03 0.06 0.06 0.05 0.04 0.03 0.03 0.02 0.02 0.02 0.02 0.01 0.01 0.00 0.01 0.00 0.00 0.00 0.00 0.00 0.01 0.01 0.01 0.01 0.01 0.01
0.05 0.03 0.01 0.01 0.02 0.03 0.03 0.03 0.04 0.04 0.04 0.04 0.03 0.02 0.03 0.05 0.04 0.02 0.01 0.00 0.00 0.00 0.00 0.01 0.03 0.03 0.03 0.02 0.01 0.01 0.01 0.01 0.00 0.00 0.00 0.00 0.00 0.00 0.00 0.00 0.00 0.00 0.00 0.00 0.01 0.01 0.01 0.01 0.01
0.05 0.02 0.01 0.01 0.02 0.03 0.03 0.03 0.03 0.04 0.05 0.04 0.02 0.01 0.02 0.03 0.04 0.03 0.01 0.00 0.01 0.00 0.01 0.01 0.01 0.01 0.01 0.01 0.01 0.01 0.00 0.00 0.00 0.00 0.00 0.00 0.00 0.00 0.00 0.00 0.00 0.00 0.00 0.00 0.01 0.01 0.01 0.01 0.01
0.05 0.02 0.01 0.01 0.02 0.05 0.05 0.05 0.04 0.05 0.07 0.04 0.02 0.02 0.02 0.02 0.03 0.03 0.01 0.01 0.00 0.00 0.00 0.00 0.00 0.00 0.00 0.00 0.00 0.00 0.00 0.00 0.00 0.00 0.00 0.00 0.00 0.00 0.00 0.00 0.00 0.00 0.00 0.00 0.00 0.01 0.01 0.01 0.01
0.06 0.04 0.02 0.01 0.02 0.05 0.05 0.05 0.05 0.06 0.10 0.09 0.04 0.01 0.01 0.01 0.02 0.02 0.01 0.01 0.00 0.00 0.00 0.00 0.00 0.00 0.00 0.00 0.00 0.00 0.00 0.00 0.00 0.00 0.00 0.00 0.00 0.00 0.00 0.00 0.00 0.00 0.00 0.00 0.00 0.01 0.01 0.01 0.01
0.05 0.03 0.02 0.02 0.03 0.04 0.04 0.04 0.03 0.07 0.11 0.10 0.05 0.02 0.01 0.01 0.01 0.01 0.01 0.00 0.00 0.00 0.00 0.00 0.00 0.00 0.00 0.00 0.00 0.00 0.00 0.00 0.00 0.00 0.00 0.00 0.00 0.00 0.00 0.00 0.00 0.00 0.00 0.00 0.00 0.00 0.01 0.01 0.01
0.04 0.03 0.03 0.03 0.03 0.04 0.04 0.04 0.04 0.07 0.09 0.06 0.03 0.02 0.02 0.01 0.00 0.00 0.00 0.00 0.00 0.00 0.00 0.00 0.00 0.00 0.00 0.00 0.00 0.00 0.00 0.00 0.00 0.00 0.00 0.00 0.00 0.00 0.00 0.00 0.00 0.00 0.00 0.00 0.00 0.00 0.00 0.00 0.00
0.03 0.02 0.03 0.03 0.03 0.04 0.04 0.04 0.04 0.05 0.05 0.03 0.01 0.01 0.01 0.01 0.00 0.00 0.00 0.00 0.00 0.00 0.00 0.00 0.00 0.00 0.00 0.00 0.00 0.00 0.00 0.00 0.00 0.00 0.00 0.00 0.00 0.00 0.00 0.00 0.00 0.00 0.00 0.00 0.00 0.00 0.00 0.00 0.00
0.02 0.02 0.02 0.02 0.05 0.03 0.03 0.04 0.04 0.03 0.02 0.02 0.02 0.01 0.01 0.01 0.00 0.00 0.00 0.00 0.00 0.00 0.00 0.00 0.00 0.00 0.00 0.00 0.00 0.00 0.00 0.00 0.00 0.00 0.00 0.00 0.00 0.00 0.00 0.00 0.00 0.00 0.00 0.00 0.00 0.00 0.00 0.00 0.00
0.02 0.02 0.02 0.03 0.05 0.06 0.04 0.04 0.04 0.04 0.03 0.03 0.03 0.03 0.02 0.01 0.01 0.00 0.00 0.00 0.00 0.00 0.00 0.00 0.00 0.00 0.00 0.00 0.00 0.00 0.00 0.00 0.00 0.00 0.00 0.00 0.00 0.00 0.00 0.00 0.00 0.00 0.00 0.00 0.00 0.00 0.00 0.00 0.00
0.02 0.02 0.03 0.03 0.05 0.05 0.05 0.06 0.05 0.04 0.03 0.04 0.04 0.03 0.02 0.02 0.01 0.01 0.00 0.00 0.00 0.00 0.00 0.00 0.00 0.00 0.00 0.00 0.00 0.00 0.00 0.00 0.00 0.00 0.00 0.00 0.00 0.00 0.00 0.00 0.00 0.00 0.00 0.00 0.00 0.00 0.00 0.00 0.00
0.04 0.03 0.03 0.04 0.03 0.02 0.04 0.05 0.05 0.04 0.04 0.03 0.03 0.03 0.02 0.01 0.01 0.00 0.01 0.00 0.00 0.00 0.00 0.00 0.00 0.00 0.00 0.00 0.00 0.00 0.00 0.00 0.00 0.00 0.00 0.00 0.00 0.00 0.00 0.00 0.00 0.00 0.00 0.00 0.00 0.00 0.00 0.00 0.00
0.05 0.04 0.04 0.04 0.04 0.03 0.03 0.04 0.05 0.05 0.04 0.03 0.02 0.01 0.01 0.01 0.00 0.00 0.01 0.00 0.00 0.00 0.00 0.00 0.00 0.00 0.00 0.00 0.00 0.00 0.00 0.00 0.00 0.00 0.00 0.00 0.00 0.00 0.00 0.00 0.00 0.00 0.00 0.00 0.00 0.00 0.00 0.00 0.01
0.05 0.05 0.05 0.04 0.04 0.04 0.03 0.04 0.05 0.05 0.04 0.03 0.02 0.01 0.00 0.01 0.01 0.00 0.01 0.00 0.00 0.00 0.00 0.00 0.00 0.00 0.00 0.00 0.00 0.00 0.00 0.00 0.00 0.00 0.00 0.00 0.00 0.00 0.00 0.00 0.00 0.00 0.00 0.00 0.00 0.00 0.00 0.01 0.02
0.04 0.05 0.04 0.03 0.04 0.04 0.03 0.04 0.06 0.05 0.04 0.03 0.02 0.01 0.01 0.01 0.01 0.00 0.00 0.00 0.00 0.00 0.00 0.00 0.00 0.00 0.00 0.00 0.00 0.00 0.00 0.00 0.00 0.00 0.00 0.00 0.00 0.00 0.00 0.00 0.00 0.00 0.00 0.00 0.00 0.00 0.01 0.01 0.02
0.04 0.05 0.04 0.04 0.05 0.04 0.03 0.04 0.05 0.05 0.05 0.04 0.02 0.02 0.02 0.01 0.01 0.00 0.00 0.00 0.00 0.00 0.00 0.00 0.00 0.00 0.00 0.00 0.00 0.00 0.00 0.00 0.00 0.00 0.00 0.00 0.00 0.00 0.00 0.00 0.00 0.00 0.00 0.00 0.00 0.00 0.01 0.02 0.02
0.06 0.04 0.04 0.04 0.06 0.05 0.05 0.04 0.04 0.05 0.05 0.04 0.02 0.02 0.02 0.01 0.01 0.00 0.00 0.00 0.00 0.00 0.00 0.00 0.00 0.00 0.00 0.00 0.00 0.00 0.00 0.00 0.00 0.00 0.00 0.00 0.00 0.00 0.00 0.00 0.00 0.00 0.00 0.01 0.00 0.00 0.01 0.01 0.01
0.08 0.07 0.05 0.07 0.07 0.05 0.05 0.03 0.03 0.03 0.04 0.02 0.02 0.01 0.01 0.01 0.00 0.00 0.00 0.00 0.00 0.00 0.00 0.00 0.00 0.01 0.01 0.00 0.00 0.00 0.00 0.00 0.00 0.00 0.00 0.00 0.00 0.00 0.00 0.00 0.00 0.00 0.00 0.01 0.01 0.00 0.01 0.01 0.01
0.08 0.08 0.10 0.10 0.07 0.04 0.02 0.02 0.01 0.01 0.02 0.01 0.01 0.00 0.00 0.00 0.00 0.00 0.00 0.00 0.00 0.00 0.00 0.00 0.00 0.00 0.00 0.00 0.00 0.00 0.00 0.00 0.00 0.00 0.00 0.00 0.00 0.00 0.00 0.00 0.00 0.00 0.00 0.00 0.01 0.00 0.01 0.00 0.00
0.06 0.10 0.13 0.11 0.08 0.04 0.01 0.01 0.00 0.00 0.00 0.00 0.00 0.00 0.00 0.00 0.00 0.00 0.00 0.00 0.00 0.01 0.00 0.00 0.00 0.00 0.00 0.00 0.00 0.00 0.00 0.00 0.00 0.00 0.00 0.00 0.00 0.00 0.00 0.00 0.00 0.00 0.00 0.00 0.01 0.00 0.00 0.00 0.01
0.09 0.10 0.12 0.10 0.06 0.03 0.01 0.00 0.00 0.00 0.00 0.00 0.00 0.00 0.00 0.00 0.00 0.00 0.00 0.00 0.00 0.00 0.01 0.00 0.00 0.00 0.00 0.00 0.00 0.00 0.00 0.00 0.00 0.00 0.00 0.00 0.00 0.00 0.00 0.00 0.00 0.00 0.00 0.00 0.00 0.00 0.00 0.01 0.01
0.07 0.07 0.08 0.06 0.03 0.02 0.01 0.00 0.00 0.00 0.00 0.00 0.00 0.00 0.00 0.00 0.00 0.00 0.00 0.00 0.00 0.00 0.00 0.00 0.00 0.00 0.00 0.00 0.00 0.00 0.00 0.00 0.00 0.00 0.00 0.00 0.00 0.00 0.00 0.00 0.00 0.00 0.00 0.00 0.00 0.00 0.00 0.00 0.00
0.05 0.05 0.04 0.03 0.02 0.01 0.00 0.00 0.00 0.00 0.00 0.00 0.00 0.00 0.00 0.00 0.00 0.00 0.00 0.00 0.00 0.00 0.00 0.00 0.00 0.00 0.00 0.00 0.00 0.00 0.00 0.00 0.00 0.00 0.00 0.00 0.00 0.00 0.00 0.00 0.00 0.00 0.00 0.00 0.00 0.00 0.00 0.00 0.00
0.05 0.05 0.03 0.03 0.02 0.01 0.00 0.00 0.00 0.00 0.00 0.00 0.00 0.00 0.00 0.00 0.00 0.00 0.00 0.00 0.00 0.00 0.00 0.00 0.00 0.00 0.00 0.00 0.00 0.00 0.00 0.00 0.00 0.00 0.00 0.00 0.00 0.00 0.00 0.00 0.00 0.00 0.00 0.00 0.00 0.00 0.00 0.00 0.00
0.03 0.04 0.02 0.01 0.01 0.00 0.00 0.00 0.00 0.00 0.00 0.00 0.00 0.00 0.00 0.00 0.00 0.00 0.00 0.00 0.00 0.00 0.00 0.00 0.00 0.00 0.00 0.00 0.00 0.00 0.00 0.00 0.00 0.00 0.00 0.00 0.00 0.00 0.00 0.00 0.00 0.00 0.00 0.00 0.00 0.00 0.00 0.00 0.00
0.03 0.02 0.01 0.01 0.00 0.00 0.00 0.00 0.00 0.00 0.00 0.00 0.00 0.00 0.00 0.00 0.00 0.00 0.00 0.00 0.00 0.00 0.00 0.00 0.00 0.00 0.00 0.00 0.00 0.00 0.00 0.00 0.00 0.00 0.00 0.00 0.00 0.00 0.00 0.00 0.00 0.00 0.00 0.00 0.00 0.00 0.00 0.00 0.00
MSLP
1010.87 1011.56 1012.38 1013.24 1014.05 1014.70 1015.16 1015.39 1015.42 1015.32 1015.17 1015.05 1015.01 1015.06 1015.18 1015.31 1015.38 1015.31 1015.08 1014.70 1014.22 1013.72 1013.30 1013.03 1012.95 1013.04 1013.25 1013.52 1013.77 1013.95 1014.04 1014.06 1014.05 1014.07 1014.15 1014.31 1014.53 1014.78 1015.00 1015.15 1015.22 1015.19 1015.11 1015.00 1014.91 1014.84 1014.81 1014.78 1014.73
1011.35 1012.16 1013.05 1013.92 1014.67 1015.20 1015.49 1015.53 1015.37 1015.09 1014.80 1014.57 1014.46 1014.49 1014.62 1014.78 1014.89 1014.87 1014.71 1014.39 1013.99 1013.57 1013.23 1013.03 1013.00 1013.14 1013.39 1013.67 1013.93 1014.12 1014.23 1014.27 1014.28 1014.32 1014.42 1014.59 1014.80 1015.02 1015.21 1015.32 1015.33 1015.27 1015.15 1015.02 1014.92 1014.84 1014.80 1014.77 1014.73
1011.95 1012.82 1013.72 1014.54 1015.18 1015.57 1015.68 1015.54 1015.21 1014.79 1014.38 1014.09 1013.96 1013.99 1014.13 1014.33 1014.48 1014.51 1014.40 1014.15 1013.82 1013.48 1013.21 1013.08 1013.11 1013.29 1013.56 1013.86 1014.13 1014.32 1014.44 1014.49 1014.52 1014.57 1014.68 1014.83 1015.02 1015.19 1015.32 1015.38 1015.34 1015.24 1015.10 1014.96 1014.86 1014.79 1014.77 1014.75 1014.73
1012.62 1013.51 1014.37 1015.09 1015.59 1015.81 1015.75 1015.45 1014.99 1014.48 1014.02 1013.71 1013.59 1013.64 1013.82 1014.05 1014.24 1014.32 1014.25 1014.06 1013.79 1013.52 1013.32 1013.24 1013.32 1013.52 1013.81 1014.11 1014.37 1014.56 1014.67 1014.72 1014.76 1014.81 1014.90 1015.03 1015.18 1015.30 1015.37 1015.37 1015.29 1015.15 1015.00 1014.87 1014.78 1014.74 1014.74 1014.76 1014.76
1013.33 1014.17 1014.93 1015.52 1015.86 1015.92 1015.72 1015.31 1014.77 1014.23 1013.78 1013.50 1013.42 1013.52 1013.74 1014.01 1014.22 1014.33 1014.31 1014.16 1013.94 1013.73 1013.58 1013.55 1013.66 1013.87 1014.15 1014.43 1014.66 1014.83 1014.92 1014.96 1014.99 1015.03 1015.10 1015.20 1015.30 1015.38 1015.39 1015.34 1015.22 1015.07 1014.92 1014.80 1014.73 1014.72 1014.75 1014.80 1014.82
1014.00 1014.75 1015.37 1015.80 1015.99 1015.91 1015.60 1015.13 1014.59 1014.07 1013.68 1013.48 1013.47 1013.63 1013.90 1014.19 1014.43 1014.56 1014.55 1014.44 1014.26 1014.09 1013.99 1013.99 1014.11 1014.31 1014.56 1014.80 1014.99 1015.11 1015.17 1015.19 1015.20 1015.23 1015.28 1015.35 1015.42 1015.45 1015.43 1015.34 1015.20 1015.03 1014.88 1014.78 1014.73 1014.74 1014.79 1014.85 1014.88
1014.54 1015.16 1015.63 1015.90 1015.94 1015.76 1015.40 1014.93 1014.43 1014.01 1013.73 1013.63 1013.71 1013.94 1014.25 1014.56 1014.80 1014.92 1014.93 1014.83 1014.69 1014.56 1014.49 1014.51 1014.62 1014.80 1015.00 1015.18 1015.31 1015.38 1015.40 1015.39 1015.38 1015.39 1015.44 1015.49 1015.54 1015.55 1015.50 1015.39 1015.23 1015.06 1014.91 1014.81 1014.77 1014.79 1014.84 1014.89 1014.90
1014.90 1015.38 1015.69 1015.81 1015.73 1015.49 1015.12 1014.69 1014.29 1014.00 1013.85 1013.88 1014.06 1014.34 1014.68 1014.99 1015.21 1015.32 1015.32 1015.24 1015.13 1015.03 1014.98 1015.02 1015.13 1015.27 1015.42 1015.54 1015.61 1015.62 1015.59 1015.55 1015.52 1015.53 1015.57 1015.63 1015.67 1015.67 1015.61 1015.49 1015.32 1015.15 1014.99 1014.89 1014.84 1014.84 1014.86 1014.88 1014.87
1015.05 1015.38 1015.54 1015.54 1015.38 1015.10 1014.76 1014.42 1014.15 1014.01 1014.00 1014.15 1014.41 1014.75 1015.09 1015.38 1015.57 1015.66 1015.64 1015.57 1015.47 1015.41 1015.39 1015.44 1015.55 1015.67 1015.77 1015.84 1015.84 1015.80 1015.73 1015.67 1015.63 1015.64 1015.69 1015.76 1015.81 1015.81 1015.76 1015.63 1015.46 1015.28 1015.11 1014.98 1014.90 1014.87 1014.85 1014.83 1014.77
1015.02 1015.22 1015.25 1015.15 1014.93 1014.65 1014.36 1014.13 1014.00 1014.00 1014.13 1014.38 1014.71 1015.07 1015.39 1015.65 1015.80 1015.85 1015.81 1015.74 1015.67 1015.63 1015.65 1015.72 1015.83 1015.94 1016.02 1016.05 1016.01 1015.93 1015.83 1015.75 1015.72 1015.73 1015.79 1015.88 1015.95 1015.97 1015.92 1015.80 1015.63 1015.43 1015.24 1015.08 1014.96 1014.88 1014.82 1014.75 1014.65
1014.89 1014.97 1014.91 1014.72 1014.47 1014.20 1013.99 1013.86 1013.85 1013.97 1014.21 1014.54 1014.91 1015.26 1015.56 1015.76 1015.86 1015.86 1015.81 1015.73 1015.68 1015.67 1015.73 1015.84 1015.97 1016.09 1016.16 1016.17 1016.12 1016.02 1015.91 1015.83 1015.80 1015.82 1015.90 1016.00 1016.09 1016.13 1016.09 1015.98 1015.81 1015.59 1015.38 1015.18 1015.02 1014.89 1014.78 1014.66 1014.52
1014.77 1014.76 1014.61 1014.37 1014.10 1013.86 1013.69 1013.65 1013.74 1013.95 1014.27 1014.64 1015.01 1015.35 1015.59 1015.74 1015.78 1015.74 1015.65 1015.57 1015.53 1015.56 1015.65 1015.80 1015.97 1016.11 1016.21 1016.23 1016.19 1016.11 1016.00 1015.93 1015.90 1015.94 1016.02 1016.13 1016.23 1016.28 1016.26 1016.16 1015.98 1015.76 1015.52 1015.30 1015.09 1014.92 1014.77 1014.62 1014.46
1014.77 1014.69 1014.48 1014.19 1013.91 1013.68 1013.57 1013.58 1013.73 1013.99 1014.34 1014.72 1015.07 1015.36 1015.55 1015.64 1015.62 1015.53 1015.41 1015.32 1015.29 1015.34 1015.46 1015.65 1015.86 1016.05 1016.19 1016.26 1016.26 1016.21 1016.13 1016.07 1016.05 1016.09 1016.18 1016.29 1016.39 1016.44 1016.43 1016.33 1016.16 1015.93 1015.68 1015.43 1015.20 1015.00 1014.81 1014.64 1014.47
1014.97 1014.83 1014.57 1014.26 1013.97 1013.76 1013.66 1013.70 1013.87 1014.14 1014.48 1014.83 1015.15 1015.38 1015.51 1015.53 1015.46 1015.32 1015.17 1015.06 1015.02 1015.07 1015.21 1015.43 1015.69 1015.94 1016.14 1016.28 1016.34 1016.34 1016.31 1016.28 1016.28 1016.31 1016.39 1016.48 1016.57 1016.61 1016.60 1016.50 1016.34 1016.11 1015.86 1015.60 1015.35 1015.13 1014.93 1014.74 1014.57
1015.36 1015.18 1014.90 1014.58 1014.29 1014.08 1013.99 1014.03 1014.18 1014.43 1014.73 1015.02 1015.28 1015.45 1015.52 1015.49 1015.36 1015.18 1015.00 1014.85 1014.78 1014.81 1014.96 1015.19 1015.49 1015.79 1016.07 1016.29 1016.44 1016.52 1016.55 1016.55 1016.56 1016.58 1016.63 1016.70 1016.76 1016.79 1016.76 1016.67 1016.52 1016.31 1016.06 1015.80 1015.55 1015.31 1015.10 1014.92 1014.75
1015.87 1015.68 1015.40 1015.09 1014.82 1014.62 1014.53 1014.54 1014.66 1014.85 1015.08 1015.31 1015.49 1015.60 1015.62 1015.54 1015.38 1015.16 1014.92 1014.73 1014.62 1014.61 1014.73 1014.96 1015.28 1015.63 1015.99 1016.30 1016.54 1016.71 1016.81 1016.85 1016.87 1016.88 1016.90 1016.93 1016.95 1016.96 1016.92 1016.84 1016.69 1016.50 1016.27 1016.02 1015.77 1015.53 1015.32 1015.13 1014.96
1016.39 1016.22 1015.97 1015.71 1015.48 1015.31 1015.21 1015.20 1015.26 1015.37 1015.51 1015.65 1015.77 1015.82 1015.79 1015.68 1015.49 1015.23 1014.96 1014.71 1014.54 1014.47 1014.54 1014.74 1015.06 1015.46 1015.88 1016.28 1016.63 1016.89 1017.06 1017.15 1017.19 1017.18 1017.17 1017.15 1017.13 1017.10 1017.06 1016.98 1016.86 1016.69 1016.48 1016.25 1016.01 1015.77 1015.54 1015.35 1015.18
1016.80 1016.68 1016.52 1016.34 1016.18 1016.06 1015.97 1015.92 1015.90 1015.92 1015.97 1016.01 1016.05 1016.05 1016.00 1015.87 1015.66 1015.38 1015.08 1014.77 1014.53 1014.39 1014.39 1014.55 1014.85 1015.27 1015.74 1016.23 1016.67 1017.02 1017.27 1017.41 1017.46 1017.44 1017.39 1017.33 1017.27 1017.22 1017.16 1017.09 1016.99 1016.85 1016.68 1016.47 1016.23 1016.00 1015.77 1015.56 1015.38
1017.01 1016.99 1016.95 1016.90 1016.85 1016.79 1016.71 1016.62 1016.53 1016.45 1016.38 1016.33 1016.29 1016.24 1016.17 1016.04 1015.84 1015.56 1015.24 1014.89 1014.58 1014.37 1014.29 1014.38 1014.65 1015.06 1015.58 1016.13 1016.65 1017.09 1017.41 1017.60 1017.67 1017.64 1017.56 1017.46 1017.36 1017.29 1017.23 1017.17 1017.10 1017.00 1016.85 1016.67 1016.45 1016.22 1015.99 1015.77 1015.58
1016.99 1017.12 1017.25 1017.37 1017.44 1017.46 1017.40 1017.27 1017.09 1016.88 1016.69 1016.53 1016.42 1016.34 1016.26 1016.15 1015.98 1015.73 1015.41 1015.04 1014.68 1014.40 1014.24 1014.26 1014.48 1014.88 1015.40 1015.99 1016.58 1017.09 1017.47 1017.71 1017.80 1017.77 1017.67 1017.54 1017.42 1017.32 1017.26 1017.22 1017.18 1017.12 1017.01 1016.86 1016.67 1016.44 1016.20 1015.98 1015.78
1016.82 1017.13 1017.45 1017.74 1017.96 1018.05 1018.00 1017.81 1017.53 1017.19 1016.87 1016.60 1016.41 1016.30 1016.23 1016.17 1016.06 1015.87 1015.58 1015.22 1014.84 1014.50 1014.27 1014.22 1014.38 1014.74 1015.26 1015.86 1016.49 1017.05 1017.48 1017.75 1017.86 1017.84 1017.73 1017.58 1017.44 1017.34 1017.28 1017.26 1017.26 1017.23 1017.17 1017.05 1016.88 1016.66 1016.43 1016.20 1015.99
1016.60 1017.10 1017.63 1018.10 1018.43 1018.58 1018.52 1018.26 1017.85 1017.37 1016.91 1016.53 1016.27 1016.14 1016.10 1016.11 1016.08 1015.97 1015.75 1015.43 1015.06 1014.69 1014.41 1014.29 1014.39 1014.69 1015.18 1015.77 1016.41 1016.99 1017.46 1017.76 1017.89 1017.88 1017.77 1017.61 1017.47 1017.36 1017.32 1017.32 1017.34 1017.36 1017.33 1017.25 1017.10 1016.90 1016.67 1016.44 1016.23
1016.48 1017.16 1017.86 1018.47 1018.90 1019.08 1018.98 1018.62 1018.07 1017.44 1016.84 1016.35 1016.03 1015.89 1015.90 1015.99 1016.07 1016.07 1015.95 1015.70 1015.36 1014.99 1014.68 1014.50 1014.52 1014.76 1015.19 1015.75 1016.37 1016.95 1017.43 1017.75 1017.90 1017.91 1017.81 1017.66 1017.52 1017.42 1017.39 1017.41 1017.46 1017.50 1017.51 1017.46 1017.33 1017.15 1016.93 1016.71 1016.51
1016.52 1017.36 1018.19 1018.91 1019.38 1019.54 1019.37 1018.89 1018.21 1017.43 1016.69 1016.11 1015.74 1015.61 1015.68 1015.86 1016.06 1016.20 1016.20 1016.04 1015.75 1015.40 1015.06 1014.84 1014.79 1014.95 1015.30 1015.80 1016.38 1016.94 1017.42 1017.75 1017.92 1017.94 1017.86 1017.73 1017.60 1017.52 1017.49 1017.53 1017.60 1017.67 1017.70 1017.67 1017.57 1017.41 1017.20 1016.99 1016.81
1016.75 1017.69 1018.61 1019.36 1019.83 1019.94 1019.67 1019.07 1018.25 1017.34 1016.50 1015.84 1015.45 1015.34 1015.47 1015.76 1016.09 1016.36 1016.49 1016.43 1016.21 1015.89 1015.55 1015.27 1015.15 1015.23 1015.49 1015.91 1016.43 1016.95 1017.40 1017.74 1017.92 1017.97 1017.92 1017.81 1017.71 1017.64 1017.64 1017.69 1017.77 1017.85 1017.90 1017.89 1017.80 1017.66 1017.47 1017.28 1017.10
1017.09 1018.09 1019.02 1019.76 1020.18 1020.21 1019.84 1019.13 1018.19 1017.19 1016.27 1015.58 1015.19 1015.12 1015.32 1015.71 1016.17 1016.56 1016.81 1016.85 1016.71 1016.42 1016.07 1015.76 1015.57 1015.55 1015.72 1016.05 1016.48 1016.95 1017.37 1017.70 1017.90 1017.98 1017.96 1017.90 1017.82 1017.78 1017.79 1017.85 1017.94 1018.03 1018.08 1018.08 1018.01 1017.89 1017.72 1017.54 1017.38
1017.42 1018.41 1019.32 1020.00 1020.34 1020.28 1019.81 1019.02 1018.01 1016.96 1016.02 1015.33 1014.97 1014.95 1015.23 1015.71 1016.27 1016.77 1017.12 1017.26 1017.18 1016.93 1016.58 1016.24 1015.98 1015.88 1015.94 1016.18 1016.52 1016.92 1017.31 1017.62 1017.84 1017.95 1017.97 1017.95 1017.91 1017.90 1017.92 1017.99 1018.08 1018.17 1018.23 1018.24 1018.19 1018.08 1017.94 1017.78 1017.64
1017.60 1018.54 1019.37 1019.96 1020.22 1020.07 1019.54 1018.70 1017.68 1016.63 1015.73 1015.08 1014.77 1014.82 1015.17 1015.73 1016.37 1016.95 1017.38 1017.59 1017.57 1017.35 1017.01 1016.65 1016.34 1016.16 1016.13 1016.26 1016.52 1016.85 1017.19 1017.49 1017.72 1017.86 1017.93 1017.95 1017.96 1017.97 1018.02 1018.09 1018.19 1018.27 1018.34 1018.35 1018.32 1018.24 1018.12 1017.99 1017.88
1017.50 1018.36 1019.09 1019.58 1019.74 1019.54 1018.98 1018.15 1017.17 1016.19 1015.36 1014.80 1014.57 1014.69 1015.10 1015.71 1016.40 1017.04 1017.52 1017.79 1017.82 1017.65 1017.33 1016.96 1016.62 1016.38 1016.28 1016.32 1016.50 1016.75 1017.05 1017.32 1017.55 1017.72 1017.83 1017.90 1017.94 1017.99 1018.06 1018.14 1018.24 1018.33 1018.39 1018.42 1018.40 1018.35 1018.26 1018.17 1018.09
1017.12 1017.87 1018.49 1018.87 1018.95 1018.70 1018.15 1017.38 1016.49 1015.62 1014.91 1014.46 1014.33 1014.51 1014.97 1015.62 1016.33 1017.00 1017.52 1017.84 1017.92 1017.80 1017.53 1017.18 1016.83 1016.56 1016.41 1016.39 1016.49 1016.68 1016.92 1017.17 1017.39 1017.58 1017.71 1017.82 1017.90 1017.98 1018.06 1018.15 1018.24 1018.33 1018.40 1018.44 1018.45 1018.42 1018.37 1018.32 1018.27
Thickness
5782 5783 5782 5772 5752 5736 5733 5742 5748 5751 5755 5763 5766 5762 5756 5751 5747 5743 5760 5769 5769 5768 5768 5767 5766 5765 5763 5762 5760 5759 5757 5756 5754 5753 5752 5750 5749 5748 5747 5746 5745 5745 5744 5743 5743 5743 5742 5742 5743
5780 5780 5773 5757 5736 5723 5731 5745 5748 5755 5762 5766 5766 5763 5757 5753 5759 5759 5763 5767 5768 5767 5766 5765 5764 5762 5761 5759 5758 5756 5754 5753 5751 5750 5749 5747 5746 5745 5744 5743 5743 5742 5741 5740 5740 5740 5740 5740 5740
5778 5775 5759 5744 5732 5726 5735 5748 5752 5761 5767 5766 5761 5761 5756 5753 5759 5761 5765 5767 5766 5764 5763 5762 5761 5759 5758 5756 5755 5753 5751 5749 5748 5747 5745 5744 5743 5742 5741 5740 5740 5739 5738 5738 5737 5737 5737 5737 5737
5770 5760 5750 5737 5733 5740 5746 5752 5757 5759 5764 5766 5761 5753 5757 5763 5764 5765 5766 5765 5763 5761 5760 5760 5758 5756 5754 5753 5752 5750 5748 5746 5745 5743 5742 5741 5740 5739 5738 5737 5737 5736 5736 5735 5734 5734 5734 5734 5735
5761 5747 5735 5728 5734 5745 5751 5757 5759 5756 5757 5759 5758 5749 5749 5761 5767 5766 5764 5763 5760 5759 5758 5756 5755 5753 5752 5750 5748 5746 5745 5743 5741 5740 5739 5738 5737 5736 5736 5735 5734 5733 5733 5732 5732 5731 5732 5732 5732
5744 5736 5722 5720 5732 5744 5751 5757 5757 5755 5755 5757 5754 5747 5746 5759 5762 5762 5762 5760 5758 5757 5755 5754 5752 5751 5749 5748 5746 5744 5742 5740 5739 5737 5736 5735 5734 5734 5733 5732 5731 5731 5730 5729 5729 5729 5729 5730 5730
5735 5727 5721 5725 5729 5738 5750 5757 5755 5752 5752 5754 5756 5744 5745 5753 5759 5760 5759 5757 5755 5754 5752 5751 5749 5748 5746 5745 5743 5741 5739 5738 5736 5735 5733 5733 5732 5731 5731 5730 5729 5728 5728 5727 5727 5727 5727 5727 5727
5738 5727 5722 5722 5727 5735 5749 5755 5758 5755 5753 5761 5759 5744 5742 5752 5758 5757 5754 5752 5751 5750 5749 5747 5746 5745 5743 5741 5740 5738 5736 5735 5733 5732 5731 5730 5729 5729 5728 5727 5726 5726 5725 5725 5724 5724 5724 5725 5725
5737 5718 5713 5722 5728 5736 5749 5750 5755 5761 5758 5757 5758 5755 5756 5758 5755 5751 5748 5746 5746 5746 5746 5745 5743 5742 5740 5739 5737 5735 5734 5732 5731 5730 5728 5727 5727 5726 5725 5724 5724 5723 5722 5722 5721 5721 5722 5722 5722
5725 5712 5720 5732 5738 5740 5746 5748 5751 5751 5747 5746 5750 5754 5757 5754 5750 5746 5743 5742 5741 5742 5743 5742 5741 5740 5738 5736 5734 5733 5731 5730 5729 5727 5726 5725 5724 5722 5722 5721 5720 5719 5718 5718 5717 5717 5718 5718 5719
5723 5718 5726 5734 5741 5744 5745 5747 5751 5746 5739 5744 5746 5747 5750 5748 5746 5744 5743 5742 5742 5742 5742 5741 5740 5738 5736 5734 5732 5730 5729 5728 5726 5725 5724 5722 5721 5719 5718 5717 5716 5715 5715 5714 5714 5714 5714 5714 5714
5719 5723 5728 5734 5742 5743 5743 5746 5744 5745 5747 5754 5754 5753 5749 5745 5744 5743 5742 5742 5742 5741 5741 5740 5739 5736 5734 5732 5731 5729 5727 5725 5723 5722 5721 5720 5718 5716 5714 5713 5712 5711 5710 5710 5710 5709 5710 5710 5710
5714 5719 5729 5735 5738 5741 5743 5742 5743 5744 5752 5755 5753 5750 5746 5745 5745 5745 5745 5744 5743 5741 5740 5740 5738 5736 5733 5731 5729 5727 5725 5723 5721 5719 5718 5716 5714 5712 5711 5709 5708 5707 5707 5706 5706 5705 5706 5706 5706
5713 5718 5724 5730 5734 5738 5736 5737 5740 5740 5749 5748 5746 5745 5745 5744 5744 5743 5743 5742 5742 5741 5740 5739 5737 5735 5732 5730 5727 5725 5723 5720 5718 5717 5715 5713 5711 5709 5708 5706 5705 5704 5703 5703 5702 5702 5702 5702 5702
5715 5712 5715 5723 5728 5732 5733 5726 5732 5740 5744 5741 5741 5742 5742 5743 5744 5743 5743 5743 5742 5741 5740 5738 5736 5734 5731 5728 5726 5723 5721 5718 5716 5714 5712 5711 5709 5707 5705 5703 5702 5701 5701 5700 5699 5699 5698 5698 5697
5705 5700 5697 5713 5723 5729 5724 5712 5729 5738 5738 5735 5736 5738 5739 5741 5743 5744 5745 5744 5743 5741 5739 5737 5736 5732 5729 5726 5724 5721 5718 5716 5713 5711 5710 5708 5706 5704 5703 5701 5699 5699 5698 5697 5696 5694 5693 5692 5692
5685 5683 5689 5703 5718 5722 5718 5712 5726 5734 5735 5732 5733 5735 5737 5738 5741 5744 5745 5744 5743 5740 5738 5735 5733 5730 5727 5724 5721 5718 5716 5714 5711 5709 5708 5706 5704 5702 5701 5699 5697 5696 5695 5694 5693 5691 5689 5688 5687
5675 5680 5687 5694 5710 5715 5711 5712 5722 5730 5732 5730 5731 5732 5734 5736 5739 5743 5744 5744 5742 5739 5737 5734 5731 5727 5724 5721 5718 5716 5714 5711 5709 5707 5705 5704 5702 5700 5699 5697 5695 5694 5693 5691 5689 5688 5687 5685 5684
5683 5683 5684 5694 5709 5709 5706 5709 5716 5725 5727 5727 5727 5729 5732 5735 5740 5742 5743 5743 5740 5737 5734 5731 5728 5725 5723 5719 5715 5712 5710 5709 5707 5706 5704 5702 5701 5699 5697 5695 5694 5692 5690 5688 5687 5685 5684 5682 5681
5681 5679 5681 5692 5706 5706 5701 5704 5714 5721 5724 5727 5728 5729 5731 5734 5736 5739 5740 5740 5738 5735 5733 5730 5728 5725 5723 5720 5716 5713 5711 5708 5707 5705 5703 5702 5700 5698 5696 5694 5692 5690 5688 5686 5685 5683 5681 5679 5678
5678 5677 5681 5686 5697 5700 5699 5697 5706 5717 5723 5727 5729 5731 5733 5734 5735 5736 5737 5737 5736 5734 5733 5731 5728 5725 5723 5720 5717 5713 5710 5708 5705 5704 5702 5701 5700 5698 5696 5694 5692 5690 5687 5684 5683 5682 5679 5676 5676
5671 5686 5689 5689 5684 5679 5690 5677 5699 5708 5714 5720 5724 5727 5730 5734 5736 5735 5736 5735 5734 5734 5733 5731 5728 5725 5723 5720 5717 5713 5708 5705 5704 5702 5701 5701 5700 5698 5696 5694 5692 5690 5687 5685 5683 5681 5679 5677 5674
5678 5688 5687 5685 5680 5677 5684 5678 5688 5706 5708 5715 5722 5726 5729 5732 5734 5735 5735 5735 5734 5734 5732 5730 5727 5724 5722 5720 5718 5714 5710 5707 5705 5703 5702 5701 5700 5699 5697 5695 5692 5690 5688 5686 5684 5682 5679 5677 5674
5686 5683 5680 5675 5672 5665 5679 5678 5684 5698 5710 5718 5723 5725 5727 5729 5732 5733 5734 5734 5732 5731 5730 5728 5725 5722 5721 5719 5717 5714 5711 5708 5705 5703 5702 5701 5700 5699 5698 5696 5693 5691 5689 5687 5685 5683 5681 5678 5676
5681 5668 5656 5654 5654 5660 5680 5681 5689 5714 5721 5724 5724 5724 5726 5728 5729 5729 5729 5729 5728 5728 5727 5725 5723 5720 5719 5718 5716 5714 5712 5709 5707 5705 5703 5701 5700 5699 5698 5697 5694 5692 5690 5688 5686 5684 5682 5680 5678
5676 5673 5657 5651 5652 5662 5678 5679 5701 5721 5727 5728 5727 5726 5725 5725 5727 5728 5728 5727 5727 5726 5725 5724 5721 5719 5718 5716 5715 5713 5712 5709 5708 5706 5704 5702 5701 5700 5699 5698 5696 5694 5692 5690 5687 5685 5683 5681 5679
5675 5672 5678 5666 5665 5663 5672 5687 5707 5719 5721 5722 5723 5722 5722 5724 5725 5726 5726 5725 5725 5724 5723 5723 5721 5718 5717 5715 5714 5712 5711 5709 5708 5707 5705 5704 5703 5702 5700 5699 5697 5695 5693 5690 5688 5685 5683 5682 5680
5688 5681 5671 5665 5657 5658 5673 5683 5694 5710 5715 5719 5720 5720 5722 5723 5723 5723 5723 5723 5723 5723 5722 5720 5720 5718 5716 5714 5713 5711 5710 5709 5708 5707 5705 5704 5703 5702 5700 5699 5697 5695 5693 5691 5688 5686 5684 5682 5681
5682 5679 5676 5669 5671 5662 5663 5684 5719 5723 5725 5724 5724 5724 5723 5722 5721 5721 5721 5721 5721 5720 5719 5718 5717 5715 5714 5712 5711 5710 5708 5708 5707 5705 5704 5703 5702 5701 5700 5698 5696 5694 5692 5690 5688 5686 5684 5682 5680
5696 5689 5681 5673 5671 5671 5671 5691 5732 5732 5733 5731 5728 5725 5723 5722 5720 5719 5718 5717 5717 5717 5716 5715 5714 5713 5712 5711 5709 5708 5707 5706 5705 5703 5703 5702 5701 5700 5699 5697 5695 5693 5691 5689 5687 5684 5683 5681 5679